Location: Unspecified
(0.0000°N, 0.0000°E)
Time: 19:57:42
(UTC+00:00)

Hubble Space Telescope - Pass Details

Date: 31 May 2023
Orbit: 525 x 528 km, 28.5° (Epoch: 04 June)

Event Time Altitude Azimuth Distance (km) Brightness Sun altitude
Rises 18:52:40 0° 326° (NW) 2,631 5.3 -12.7°
Reaches altitude 10° 18:55:33 10° 347° (NNW) 1,745 3.9 -13.4°
Maximum altitude 18:58:12 17° 28° (NNE) 1,371 2.8 -14.0°
Enters shadow 19:00:13 12° 62° (ENE) 1,600 2.8 -14.5°
